Regional Weather Roundup
Issued by NWS Wilmington, NC

Home | Current Version | Previous Version | Text Only | Print | Product List | Glossary On
Versions: 1 2 3 4 5 6 7 8 9 10 11 12 13 14 15 16 17 18 19 20 21 22 23 24 25 26 27 28 29 30 31 32 33 34 35 36 37 38 39 40 41 42 43 44 45 46 47 48 49 50
000
ASUS42 KILM 250113
RWRILM
RWRILM
REGIONAL HOURLY WEATHER ROUNDUP
NATIONAL WEATHER SERVICE WILMINGTON NC
900 PM EDT FRI APR 24 2015

NOTE: "FAIR" INDICATES FEW OR NO CLOUDS BELOW 12,000 FEET WITH NO
SIGNIFICANT WEATHER AND/OR OBSTRUCTIONS TO VISIBILITY.

...............WFO WILMINGTON COUNTY WARNING AREA...............

......COASTAL NC AND SC COUNTIES......

CITY           SKY/WX    TMP DP  RH WIND       PRES   REMARKS
WILMINGTON     PTCLDY    60  41  49 SW10      30.00R
N MYRTLE BEACH CLEAR     60  45  57 SW6       30.02R
MYRTLE BEACH   CLEAR     61  41  48 SW8       30.04R

......INLAND NC AND SC COUNTIES.......

CITY           SKY/WX    TMP DP  RH WIND       PRES   REMARKS
LUMBERTON      PTCLDY    52  43  71 SW7       29.99R
ELIZABETHTOWN  PTCLDY    57  44  60 S3        29.99R
WHITEVILLE     CLEAR     57  42  57 S7        30.00R
FLORENCE       PTCLDY    59  42  53 S3        30.00R
DARLINGTON     PTCLDY    61  39  44 CALM      30.01S

....................REST OF NORTH CAROLINA......................

.........EASTERN NC.........

CITY           SKY/WX    TMP DP  RH WIND       PRES   REMARKS
CAPE HATTERAS  PTCLDY    48  41  76 CALM      29.97R
JACKSONVILLE   MOCLDY    52  41  66 CALM      29.99S
MOREHEAD CITY  MOCLDY    60  45  57 W9        29.99R
KENANSVILLE    MOCLDY    51  41  67 CALM      29.99R
NEW BERN       MOCLDY    52  38  58 CALM      29.99R
ELIZABETH CITY PTCLDY    52  32  46 SW8       29.96R

.........CENTRAL NC.........

CITY           SKY/WX    TMP DP  RH WIND       PRES   REMARKS
RALEIGH DURHAM PTCLDY    58  33  39 CALM      29.97R
ROCKY MOUNT    CLEAR     51  43  74 CALM      29.97R
ROANOKE RAPIDS NOT AVBL
FAYETTEVILLE   MOCLDY    60  42  51 W3        29.98R
HOFFMAN        PTCLDY    57  44  62 CALM      30.02R

.........WESTERN NC.........

CITY           SKY/WX    TMP DP  RH WIND       PRES   REMARKS
CHARLOTTE      MOCLDY    61  35  37 S5        29.98S
GREENSBORO     PTCLDY    58  29  33 SW7       29.96R
HICKORY        NOT AVBL
BOONE          NOT AVBL
ASHEVILLE      NOT AVBL

.....................REST OF SOUTH CAROLINA.....................

.........EASTERN SC.........

CITY           SKY/WX    TMP DP  RH WIND       PRES   REMARKS
CHARLESTON     PTCLDY    57  45  64 S6        30.02F
BEAUFORT MCAS  PTCLDY    63  50  62 S3        30.02S
HILTON HEAD    MOCLDY    63  46  55 S5        30.04S

.........CENTRAL SC.........

CITY           SKY/WX    TMP DP  RH WIND       PRES   REMARKS
COLUMBIA       PTCLDY    63  44  50 CALM      29.98S
ORANGEBURG     PTCLDY    61  44  53 CALM      29.99F
SUMTER SHAW    MOCLDY    62  43  49 S2        29.97S

.........WESTERN SC.........

CITY           SKY/WX    TMP DP  RH WIND       PRES   REMARKS
GREENVILLE     NOT AVBL
ROCK HILL      MOCLDY    60  39  45 S5        29.99S
ANDERSON       MOCLDY    63  43  48 E3        29.97S
CLEMSON        NOT AVBL
GREENWOOD      MOCLDY    60  43  53 CALM      30.00R


...................COASTAL AND OFFSHORE REPORTS..................

................LOCAL PIERS AND NC RESERVE................


STATION/POSITION TIME  SKY/WX   TEMP    WIND        PRES    VSBY
                                AIR SEA DIR/SP/G
                 (UTC)          (F)     (DEG/KT/KT) (MB)    (MI)
JOHNY MRCER PIER 0000            62 68  210/ 13/ 18 1014.7R
NC RESRV MASNBRO NOT AVBL
OCEAN CREST PIER 0102            64 68  200/ 13/ 16 1015.6R
SPRINGMAID  PIER 0000            63 67  190/ 15/ 17 1016.2R


................COASTAL AND OFFSHORE BUOYS................


STATION/POSITION TIME  SKY/WX   TEMP    WIND        PRES    VSBY
                                AIR SEA DIR/SP/G
                 (UTC)          (F)     (DEG/KT/KT) (MB)    (MI)
DIMNDSHOAL 41025 0050            59 73  200/  4/  6 1015.2R
WVE H/P(F/S)=  6/ 9 WND WVE H/P(F/S)=  2/ 3 SWL H/P/D(F/S/D)=  5/ 60/ 9

CAPE LOOKOUT     0100            61     250/ 10/ 12 1015.1R
ONSLOW BAY 41036 NOT AVBL
5 WRITEBCH 41038 NOT AVBL
MASONBORO  41110 0019               65                N/A
WVE H/P(F/S)=  3/ 8 WND WVE H/P(F/S)=  2/ 8 SWL H/P/D(F/S/D)=  2/100/13

WILM HARBR 41108 0011               65                N/A
WVE H/P(F/S)=  2/13 WND WVE H/P(F/S)=  2/ 5 SWL H/P/D(F/S/D)=  2/130/13

27WRITEBCH 41037 0000            61 71  250/ 10/ 12   N/A
FRYING PAN 41013 0050            64 71  210/ 10/ 12 1017.1R
WVE H/P(F/S)=  4/ 8 WND WVE H/P(F/S)=  2/ 4 SWL H/P/D(F/S/D)=  3/ 80/ 8

SUNST NRSH 41024 0008            64     230/ 12/ 16   N/A
CAPRS NRSH 41029 0008            64     200/  8/ 10   N/A
EDISTO     41004 0050            65 71  180/  6/ 10 1016.8S
WVE H/P(F/S)=  3/ 8 WND WVE H/P(F/S)=  2/ 4 SWL H/P/D(F/S/D)=  3/ 8



..........OFFSHORE BUOYS BEYOND 100 NM OFFSHORE...........
.....IN A TRIANGLE---HAT TO BERMUDA TO BAHAMAS TO HAT.....


STATION/POSITION TIME  SKY/WX   TEMP    WIND        PRES    VSBY
                                AIR SEA DIR/SP/G
                 (UTC)          (F)     (DEG/KT/KT) (MB)    (MI)
150E HAT   41001 NOT AVBL
W BERMUDA  41048 0050            65 70  320/ 17/ 23 1012.9R
WVE H/P(F/S)=  6/ 7 WND WVE H/P(F/S)=  5/ 7 SWL H/P/D(F/S/D)=  3/11

ATLANTIC S 41049 0050            76 77  240/ 10/ 12 1012.2F
WVE H/P(F/S)=  4/13 WND WVE H/P(F/S)=  2/ 5 SWL H/P/D(F/S/D)=  3/ 20/13

E BAHAMAS  41046 0050            79 80  270/ 10/ 14 1014.2R
WVE H/P(F/S)=  4/14 WND WVE H/P(F/S)=  2/ 4 SWL H/P/D(F/S/D)=  3/ 40/14

NE BAHAMAS 41047 0050            77 78  320/ 12/ 14 1013.7R
WVE H/P(F/S)=  4/14 WND WVE H/P(F/S)=  2/ 4 SWL H/P/D(F/S/D)=  3/ 50/14

120E CANVRL41010 0020            75 79   40/ 12/ 16 1015.5R

END



USA.gov is the U.S. government's official web portal to all federal, state and local government web resources and services.